Overview Statistics Trail Chart Weather Telemetry Raw packets
 

This is the latest recevied weather packets stored in our database for station/object IU5GBO-13. If no packets are shown the sender has not sent any weather packets the latest 10 day(s).

<< 28 29 30 31 32 33 34 >>
Time Temp. Humidity Pressure Rain* Wind** Luminosity Snow
1777641974 22.22° C 17% 1023.6 hPa - - - -
1777641374 23.33° C 17% 1023.6 hPa - - - -
1777640774 22.22° C 17% 1023.8 hPa - - - -
1777640174 22.78° C 17% 1023.9 hPa - - - -
1777639574 22.22° C 17% 1023.8 hPa - - - -
1777638974 22.22° C 17% 1023.9 hPa - - - -
1777638374 22.22° C 17% 1024.1 hPa - - - -
1777637774 22.22° C 18% 1024 hPa - - - -
1777637174 22.22° C 17% 1024.1 hPa - - - -
1777636574 22.22° C 17% 1024.2 hPa - - - -
1777635974 22.22° C 17% 1024.2 hPa - - - -
1777635374 22.22° C 17% 1024.4 hPa - - - -
1777634774 22.22° C 18% 1024.4 hPa - - - -
1777634174 21.67° C 18% 1024.5 hPa - - - -
1777633574 22.22° C 18% 1024.6 hPa - - - -
1777632974 22.22° C 17% 1024.7 hPa - - - -
1777632374 21.67° C 18% 1024.7 hPa - - - -
1777631774 21.11° C 18% 1024.9 hPa - - - -
1777631174 21.11° C 18% 1024.9 hPa - - - -
1777630574 21.11° C 20% 1025.1 hPa - - - -
1777629974 20.56° C 23% 1025.1 hPa - - - -
1777629374 20° C 23% 1025 hPa - - - -
1777628774 20° C 23% 1025.1 hPa - - - -
1777628174 20° C 23% 1025.2 hPa - - - -
1777627574 19.44° C 26% 1025.1 hPa - - - -

* Rain since midnight (hover to see other rain measurements)
** Current wind speed in m/s (hover to see current wind gust speed)